Hauptseite
METAR-TAF:

METAR-TAF

Flughäfen :

Flugplatz Laval-Entrammes

Laval, Frankreich

Breite: 48-01-56N, Länge: 000-44-34W, Höhe: 101 m

Beobachtung

Neuester Wetterbericht von vor 28 Minuten, um 13:00 UTC
Wind 2 kt aus unterschiedlichen Richtungen
Temperatur 16°C
Luftfeuchtigkeit 77%
Luftdruck 1009 hPa
Sichtweite 10 km oder mehr
keine Wolken unter 1500 m und keine Kumulonimbus oder Gewitterwolken

METAR: LFOV 151300Z AUTO VRB02KT CAVOK 16/12 Q1009

Zeit: 15:28 (13:28 UTC)


TAF: fehlend

Wetterbeobachtungen und Prognosen von mehr als 4000 Flughäfen (METAR und TAF Bericht).

Die verfügbaren Stationen werden durch gelbe und rote Markierungen auf der Karte dargestellt.

Führen Sie die Maus auf sie, um den Namen der Station zu sehen.

Darauf klicken, um die Beobachtung von Wetterbeobachtungen und Prognosen zu sehen.

Um die Karte zu ändern : klicken Sie auf den grünen Tasten mit einem schwarzen Kreuz Zum Vergrößern, auf den grünen Button mit einem Gedankenstrich zu verkleinern, oder auf die grünen Pfeile für benachbarte Karten.


METAR-TAF: